This is the latest recevied weather packets stored in our database for station/object NE1CU. If no packets are shown the sender has not sent any weather packets the latest 10 day(s).
| Time | Temp. | Humidity | Pressure | Rain* | Wind** | Luminosity | Snow |
|---|---|---|---|---|---|---|---|
| 1778072878 | 16.67° C | 76% | 1009.9 hPa | 0 mm | - | 214 W/m² | - |
| 1778072575 | 16.67° C | 77% | 1010 hPa | 0 mm | - | 225 W/m² | - |
| 1778072273 | 16.67° C | 76% | 1009.9 hPa | 0 mm | - | 197 W/m² | - |
| 1778071971 | 16.67° C | 75% | 1010 hPa | 0 mm | - | 191 W/m² | - |
| 1778071669 | 17.22° C | 75% | 1010 hPa | 0 mm | - | 228 W/m² | - |
| 1778071366 | 16.67° C | 76% | 1010.2 hPa | 0 mm | - | 233 W/m² | - |
| 1778071064 | 17.22° C | 75% | 1010.3 hPa | 0 mm | - | 206 W/m² | - |
| 1778070762 | 17.22° C | 76% | 1010.3 hPa | 0 mm | - | 325 W/m² | - |
| 1778070458 | 16.67° C | 77% | 1010.5 hPa | 0 mm | - | 462 W/m² | - |
| 1778070156 | 16.67° C | 77% | 1010.6 hPa | 0 mm | - | 250 W/m² | - |
| 1778069854 | 16.67° C | 78% | 1010.5 hPa | 0 mm | - | 182 W/m² | - |
| 1778069550 | 16.67° C | 78% | 1010.5 hPa | 0 mm | - | 186 W/m² | - |
| 1778069247 | 16.11° C | 79% | 1010.4 hPa | 0 mm | - | 183 W/m² | - |
| 1778068945 | 16.11° C | 80% | 1010.4 hPa | 0 mm | - | 150 W/m² | - |
| 1778068643 | 15.56° C | 80% | 1010.3 hPa | 0 mm | - | 134 W/m² | - |
| 1778068341 | 15.56° C | 80% | 1010.3 hPa | 0 mm | - | 115 W/m² | - |
| 1778068038 | 15.56° C | 81% | 1010.4 hPa | 0 mm | - | 117 W/m² | - |
| 1778067736 | 15.56° C | 82% | 1010.3 hPa | 0 mm | - | 112 W/m² | - |
| 1778067434 | 15° C | 83% | 1010.3 hPa | 0 mm | - | 100 W/m² | - |
| 1778067131 | 15° C | 84% | 1010.3 hPa | 0 mm | - | 97 W/m² | - |
| 1778066827 | 15° C | 83% | 1010.4 hPa | 0 mm | - | 82 W/m² | - |
| 1778066525 | 15° C | 84% | 1010.4 hPa | 0 mm | - | 83 W/m² | - |
| 1778066222 | 15° C | 84% | 1010.4 hPa | 0 mm | - | 127 W/m² | - |
| 1778065920 | 14.44° C | 84% | 1010.5 hPa | 0 mm | - | 77 W/m² | - |
| 1778065617 | 14.44° C | 85% | 1010.5 hPa | 0 mm | - | 70 W/m² | - |
* Rain latest hour (hover to see other rain measurements)
** Current wind speed in m/s (hover to see current wind gust speed)